Regional Weather Roundup
Issued by NWS

Home | Current Version | Previous Version | Graphics & Text | Print | Product List | Glossary On
Versions: 1 2 3 4 5 6 7 8 9 10 11 12 13 14 15 16 17 18 19 20 21 22 23 24 25 26 27 28 29 30 31 32 33 34 35 36 37 38 39 40 41 42 43 44 45 46 47 48 49 50
000
ASUS43 KFSD 242110
RWRSD

WEATHER ROUNDUP FOR SOUTH DAKOTA
NATIONAL WEATHER SERVICE SIOUX FALLS SD
400 PM CDT SAT JUN 24 2017

NOTE: "FAIR" INDICATES FEW OR NO CLOUDS BELOW 12,000 FEET WITH NO
SIGNIFICANT WEATHER AND/OR OBSTRUCTIONS TO VISIBILITY.


SDZ001>005-009-010-012>017-242200-
NORTHWEST AND NORTH CENTRAL SOUTH DAKOTA

CITY           SKY/WX    TMP DP  RH WIND       PRES   REMARKS
BUFFALO          N/A     71  29  21 N24G32    30.20S
FAITH            N/A     72  31  22 NW20G29   30.23S
MOBRIDGE       SUNNY     68  35  29 NW20G31   30.18R
$$

SDZ012>016-024>037-041>051-057-063-072>074-242200-
SOUTHWEST AND SOUTH CENTRAL SOUTH DAKOTA

CITY           SKY/WX    TMP DP  RH WIND       PRES   REMARKS
RAPID CTY ARPT MOSUNNY   75  31  19 N18G31    30.26S
PIERRE         SUNNY     72  33  24 NW23G35   30.18R
CUSTER         PTSUNNY   65  27  23 VRB7      30.34S
ELLSWORTH AFB  MOSUNNY   74  30  19 N18G26    30.25
PHILIP         MOSUNNY   76  33  21 NW21G30   30.20F
PINE RIDGE     MOSUNNY   72  35  25 NW9G17    30.28F
SPEARFISH      FAIR      70  32  24 NW15G24   30.31S
WINNER         MOCLDY    75  35  23 NW16G30   30.19S
$$

SDZ004>011-016>023-039-040-242200-
NORTHEAST SOUTH DAKOTA

CITY           SKY/WX    TMP DP  RH WIND       PRES   REMARKS
ABERDEEN       MOSUNNY   65  41  41 NW18G30   30.15F
WATERTOWN      MOSUNNY   62  41  46 NW17G25   30.13S
BROOKINGS      PTSUNNY   64  41  42 NW21      30.13S
SISSETON         N/A     65  42  43 NW22G30   30.10R
$$

SDZ017-020-022-023-036>040-048>070-242200-
SOUTHEAST SOUTH DAKOTA

CITY           SKY/WX    TMP DP  RH WIND       PRES   REMARKS
SIOUX FALLS    MOSUNNY   69  42  37 NW26G33   30.12R
HURON          PTSUNNY   69  41  36 NW21G31   30.14S
CHAMBERLAIN    SUNNY     74  37  26 W24G31    30.18S
MITCHELL       SUNNY     75  32  20 NW23G37   30.14F
YANKTON        SUNNY     75  38  26 NW24G37   30.14S
$$

ABBREVIATIONS USED IN REMARKS
   TC - TEMPERATURE IN CELSIUS
  WCI - WIND CHILL INDEX
   HX - HEAT INDEX
  VSB - VISIBILITY




USA.gov is the U.S. government's official web portal to all federal, state and local government web resources and services.